Location: Unspecified
(0.0000°N, 0.0000°E)
Time: 12:50:45
(UTC+00:00)

NOAA 6 - Visible Passes

Search period start: 06 December 2021 00:00
Search period end: 16 December 2021 00:00
Orbit: 771 x 787 km, 98.7° (Epoch: 05 December)

Date Brightness Start Highest point End Pass type
(mag) Time Alt. Az. Time Alt. Az. Time Alt. Az.
06 Dec 6.7 18:46:06 10° SSW 18:50:07 23° WSW 18:54:08 10° NW visible
07 Dec 4.8 18:12:33 10° S 18:17:37 58° WSW 18:22:40 10° NNW visible
08 Dec 6.9 05:07:55 10° NE 05:11:45 22° ESE 05:15:36 10° SSE visible
09 Dec 6.7 18:47:36 10° SSW 18:51:33 22° WSW 18:55:29 10° NW visible
10 Dec 4.9 18:13:59 10° S 18:19:02 56° WSW 18:24:04 10° NNW visible
11 Dec 6.9 05:09:15 10° NE 05:13:10 22° ESE 05:17:07 10° SSE visible
12 Dec 6.8 18:49:06 10° SSW 18:52:58 22° WSW 18:56:49 10° NW visible
13 Dec 5.0 18:15:26 10° S 18:20:28 54° WSW 18:25:27 10° NNW visible
14 Dec 6.8 05:10:35 10° NE 05:14:36 23° ESE 05:18:37 10° SSE visible
15 Dec 6.8 18:50:36 10° SSW 18:54:23 21° WSW 18:58:09 10° NW visible
